Home   Weather   Hoofddorp   Past weeks

Flag for Netherlands Past Weather in Hoofddorp, Netherlands — Yesterday and Last 2 Weeks

Now
59 °F

Passing clouds.


Feels Like: 56 °F
Forecast: 56 / 63 °F
Wind: 14 mph from Southwest

Location: Amsterdam Schiphol Airport

Current Time: Sep 29, 2016 at 7:12:09 PM

Latest Report: Sep 29, 2016 at 6:25 PM


Visibility: N/A

Pressure: 29.86 "Hg

Humidity: 94%

Dew Point: 57 °F

Location of HoofddorpLocation

Past Weather in Hoofddorp — Graph

°F

Hoofddorp Temperature Yesterday

Maximum temperature yesterday: 70 °F (at 1:25 PM)
Minimum temperature yesterday: 61 °F (at 1:25 AM)
Average temperature yesterday: 65 °F

High & Low Weather Summary for the Past Weeks

 TemperatureHumidityPressure
High86 °F (Sep 14, 5:25 PM)100% (Sep 16, 4:25 AM)30.27 "Hg (Sep 16, 4:25 AM)
Low46 °F (Sep 27, 6:55 AM)40% (Sep 14, 5:25 PM)29.77 "Hg (Sep 15, 4:55 PM)
Average62 °F77%30.07 "Hg
* Reported Sep 14 5:25 PM — Sep 29 5:55 PM, Hoofddorp, Weather by CustomWeather, © 2016

Note: Actual official high and low records may vary slightly from our data, if they occured in-between our weather recording intervals... More about our weather records

Advertising

Hoofddorp Weather History for the Previous 24 Hours

Scroll right to see more
 ConditionsComfort  
Time TempWeatherWind HumidityBarometerVisibility
5:55 PM
Thu, Sep 29
57 °FPassing clouds.16 mph94%29.86 "HgN/A
5:25 PM59 °FDrizzle. Broken clouds.17 mph88%29.89 "Hg3 mi
4:55 PM59 °FDrizzle. Partly sunny.20 mph94%29.89 "Hg1 mi
4:25 PM61 °FHeavy rain. Partly sunny.18 mph94%29.86 "Hg1 mi
3:55 PM63 °FDrizzle. Partly sunny.20 mph94%29.86 "Hg1 mi
3:25 PM63 °FDrizzle. Partly sunny.22 mph94%29.86 "Hg2 mi
2:55 PM63 °FDrizzle. Broken clouds.22 mph94%29.89 "Hg5 mi
2:25 PM63 °FDrizzle. Cloudy.22 mph94%29.89 "Hg3 mi
1:55 PM64 °FDrizzle. Mostly cloudy.22 mph88%29.89 "Hg3 mi
1:25 PM63 °FDrizzle. More clouds than sun.20 mph94%29.89 "Hg4 mi
12:55 PM63 °FMostly cloudy.20 mph88%29.92 "HgN/A
12:25 PM63 °FPartly sunny.20 mph88%29.92 "HgN/A
11:55 AM63 °FDrizzle. Broken clouds.20 mph94%29.92 "HgN/A
11:25 AM63 °FDrizzle. Partly sunny.17 mph94%29.95 "Hg4 mi
9:55 AM61 °FDrizzle. Low clouds.16 mph94%29.95 "Hg3 mi
9:25 AM61 °FPartly sunny.17 mph88%29.95 "HgN/A
8:55 AM61 °FPartly sunny.20 mph88%29.95 "HgN/A
8:25 AM61 °FPartly sunny.18 mph88%29.95 "HgN/A
7:55 AM61 °FPartly sunny.15 mph83%29.98 "HgN/A
7:25 AM59 °FPassing clouds.14 mph88%29.98 "HgN/A
6:55 AM59 °FPassing clouds.16 mph82%29.98 "HgN/A
6:25 AM61 °FPassing clouds.17 mph77%29.98 "HgN/A
5:55 AM61 °FClear.17 mph77%30.01 "Hg10 mi
5:25 AM61 °FClear.15 mph77%30.01 "Hg10 mi
4:55 AM61 °FClear.15 mph72%30.01 "Hg10 mi
4:25 AM61 °FClear.17 mph77%30.04 "Hg10 mi
3:55 AM61 °FPassing clouds.14 mph83%30.07 "HgN/A
3:25 AM61 °FClear.13 mph88%30.07 "Hg10 mi
2:55 AM61 °FPassing clouds.12 mph88%30.07 "HgN/A
2:25 AM63 °FPassing clouds.13 mph83%30.09 "HgN/A
1:55 AM63 °FPassing clouds.14 mph83%30.09 "HgN/A
1:25 AM63 °FPassing clouds.15 mph88%30.09 "HgN/A
12:55 AM63 °FPassing clouds.14 mph88%30.09 "HgN/A
12:25 AM63 °FPassing clouds.14 mph88%30.12 "HgN/A
11:55 PM
Wed, Sep 28
63 °FPassing clouds.15 mph88%30.12 "HgN/A
11:25 PM63 °FPassing clouds.16 mph88%30.12 "HgN/A
10:55 PM63 °FPassing clouds.14 mph88%30.12 "HgN/A
10:25 PM64 °FPassing clouds.17 mph83%30.12 "HgN/A
9:55 PM64 °FPassing clouds.14 mph83%30.12 "HgN/A
9:25 PM64 °FPassing clouds.16 mph83%30.15 "HgN/A
8:55 PM64 °FPassing clouds.18 mph83%30.15 "HgN/A
8:25 PM64 °FPassing clouds.15 mph83%30.15 "HgN/A
7:55 PM64 °FPassing clouds.14 mph78%30.15 "HgN/A
7:25 PM66 °FClear.15 mph73%30.15 "Hg10 mi
Weather by CustomWeather, © 2016

See weather overviewHow to use our weather pages